Regional Weather Roundup
Issued by NWS Newport/Morehead, NC

Current Version | Previous Version | Graphics & Text | Print | Product List | Glossary Off
Versions: 1 2 3 4 5 6 7 8 9 10 11 12 13 14 15 16 17 18 19 20 21 22 23 24 25 26 27 28 29 30 31 32 33 34 35 36 37 38 39 40 41 42 43 44 45 46 47 48 49 50

000
ASUS42 KMHX 301210
RWRMHX
WEATHER ROUNDUP FOR EASTERN NORTH CAROLINA
NATIONAL WEATHER SERVICE NEWPORT/MOREHEAD CITY NC
700 AM EST FRI JAN 30 2015

NOTE: "FAIR" INDICATES FEW OR NO CLOUDS BELOW 12,000 FEET
WITH NO SIGNIFICANT WEATHER AND/OR OBSTRUCTIONS TO VISIBILITY

NCZ015>017-031-032-045>047-102-103-301300-
NORTH COAST

CITY           SKY/WX    TMP DP  RH WIND       PRES   REMARKS
EDENTON        LGT RAIN  43  39  86 W7        29.97R
ELIZABETH CITY RAIN      42  37  82 W9        29.95R
KITTY HAWK     DRIZZLE   46  38  73 W13G20    29.92R
MANTEO         CLOUDY    46  37  71 W13G21    29.94R

$$

NCZ045>047-081-094-103-104-301300-
CENTRAL COAST

CITY           SKY/WX    TMP DP  RH WIND       PRES   REMARKS
FRISCO         CLOUDY    50  44  80 W10       29.94F
SWANQUARTER    NOT AVBL

$$

NCZ095-097-098-100-101-301300-
SOUTHERN COAST

CITY           SKY/WX    TMP DP  RH WIND       PRES   REMARKS
BEAUFORT       CLOUDY    50  45  83 W9        29.96S
CEDAR ISLAND   NOT AVBL
JACKSONVILLE   LGT RAIN  47  42  83 W9        29.97R
PINEY ISLAND     N/A    N/A N/A N/A MISG      29.95S
WILMINGTON     LGT RAIN  49  44  83 W8        29.97S


$$

NCZ011>013-027>030-043-044-078>080-089-090>093-098-301300-
COASTAL PLAIN

CITY           SKY/WX    TMP DP  RH WIND       PRES   REMARKS
AHOSKIE        RAIN      38  35  89 CALM      29.99R
CLINTON        CLOUDY    47  37  68 NW6       30.00R
ELIZABETHTOWN  MOCLDY    48  38  68 W8        30.00R
GOLDSBORO      CLOUDY    44  43  97 W5        29.98R
GREENVILLE     CLOUDY    43  37  81 W3        30.00R
HAVELOCK       LGT RAIN  50  42  74 W12       29.97R
KENANSVILLE    CLOUDY    46  39  77 W7        30.00R
KINSTON        LGT RAIN  45  39  81 W6        29.99R
NEW BERN       LGT RAIN  50  41  71 W8G17     29.97S
RICHLANDS      CLOUDY    45  39  81 W5        29.98R
ROCKY MOUNT    CLOUDY    43  31  62 NW3       29.99R
WASHINGTON     RAIN      43  40  86 W5        29.98R
WHITEVILLE     CLOUDY    50  40  70 W5        29.99R

$$

AMZ130-135-150-152-154-156-158-170-250-252-270-ANZ085-086-088-633-658-670-301300-
MARINE OBSERVATIONS

STATION/POSITION TIME  TEMP    WIND        PRES    WAVE   SWELL
                       AIR SEA DIR/SP/G            HT/PER HT/PER
                 (UTC) (F)     (DEG/KT/KT) (MB)    (FT/S) (FT/S)
CHESAPEAKE LIGHT 1100   43     290/ 20/ 23 1013.8
64 E VA BEACH    1200   48 49  290/ 21/ 25 1012.4    4/ 4   2/11
DUCK             1200   44 44  270/ 12/ 15 1012.8
2 E DUCK         1200      43                N/A     1/12   2/12
10 NE DUCK       1200      44                N/A     2/11   2/11
OREGON INLET     1200   44 42  240/  6/  8 1013.3
13E OREGON INLT  1200      43                N/A     3/11   2/11
HATTERAS CG      1200   51 45  250/ 10/ 13 1014.1
DIAMOND BUOY     1200   59 69  270/ 25/ 29 1012.9    6/ 6   2/11
17 S OCRACOKE    NOT AVBL
CAPE LOOKOUT     1200   52     270/ 14/ 17 1014.2
BEAUFORT LAB     1200   50 47  280/  5/  8 1013.3
27 SE WRIGHTSVLE NOT AVBL
5 SE WRIGHTSVLE  1100   53 52  240/ 14/ 16 1014.4
225 S CAPE HAT   1131   66 71  220/ 21/ 27 1017.3    5/10   3/10
41 SE CHARLESTON 1200   61 68  250/ 23/ 29 1015.7    5/ 6   2/10

$$



USA.gov is the U.S. government's official web portal to all federal, state and local government web resources and services.